Hourly Data Report for March 13, 2000

SHERBROOKE A
QUEBEC

45°26'00.000" N
71°41'00.000" W
241.40 m
7028124
71610
YSC

Download Data

Hourly Data (March 2000)
Hourly Data Report for March 13, 2000
TIME
LST
Temp Definition
°C
Dew Point Definition
°C
Rel Hum Definition
%
Precip. Amount Definition
mm

Wind Dir Definition
10's deg

Wind Spd Definition
km/h
Visibility Definition
km
Stn Press Definition
kPa
Hmdx Definition


Wind Chill Definition


Weather Definition


00:00 -6.0 -12.1 62   29 15 15.0 98.32   -12  
01:00 -6.9 -13.2 61   30 15 15.0 98.42   -13  
02:00 -8.2 -13.6 65   29 13 15.0 98.49   -14  
03:00 -10.4 -14.7 71   28 15 15.0 98.59   -17  
04:00 -10.9 -15.1 71   28 11 15.0 98.69   -17  
05:00 -11.6 -15.9 70   28 15 15.0 98.79   -19  
06:00 -11.2 -16.1 67   29 19 15.0 98.88   -19  
07:00 -11.5 -15.0 75   27 22 15.0 98.98   -20  
08:00 -10.7 -16.4 63   30 17 24.1 99.12   -18 Mostly Cloudy
09:00 -10.9 -17.7 57   30 15 24.1 99.22   -18 Mostly Cloudy
10:00 -9.6 -17.7 52   28 17 24.1 99.28   -17 Mainly Clear
11:00 -8.8 -17.9 48   27 22 24.1 99.31   -17 Mainly Clear
12:00 -8.2 -17.9 46   27 20 24.1 99.35   -16 Clear
13:00 -7.3 -18.4 41   27 20 24.1 99.38   -14 Clear
14:00 -6.9 -20.1 34   29 22 24.1 99.41   -14 Clear
15:00 -6.8 -19.8 35   27 19 24.1 99.45   -14 Clear
16:00 -6.9 -20.2 34   29 19 24.1 99.45   -14 Clear
17:00 -7.4 -20.9 33   28 13 24.1 99.51   -13 Clear
18:00 -8.7 -20.7 37   27 6 15.0 99.55   -12  
19:00 -14.0 -20.7 57   22 6 15.0 99.58   -18  
20:00 -16.2 -21.2 65   17 4 15.0 99.58   -19  
21:00 -15.8 -20.0 70   9 6 15.0 99.61   -20  
22:00 -16.9 -22.2 63   9 6 15.0 99.61   -21  
23:00 -16.5 -21.4 66   9 9 15.0 99.58   -23  

Notes on Data Quality.

Legend

  • E = Estimated
  • M = Missing
  • NA = Not Available*
  • [empty] = Indicates an unobserved value
Date modified: